Quebec

Airport
ICAO code: 
CYQB
Summary
ICAO Region: 
NAM
Territory: 
Location: 
Quebec City, Quebec,
Coordinates: 
Aerial View: 
46° 47' 27.96" N, 71° 23' 35.891" W
Metar
Observation
CYQB 290600Z 07003KT 15SM FEW009 SCT100 BKN150 M11/M12 A2987 RMK ST1AC2AC2 SLP121
Station
Quebec, Que
Date/Time
2021-11-29 06:00:00
Wind direction
70°
Wind speed
03 kts
Lowest cloud amount
few clouds
Temperature
-11°C
Dew point
-12°C
Humidity
92%
Weather condition
n/a

Description

Québec City Jean Lesage International Airport, also known as Jean Lesage International Airport is located 6 nm west southwest of Quebec City, Quebec, Canada.

Climatology

Humid Continental climate (Köppen climate classification Dfb) - Variable weather patterns and a large seasonal temperature variance. Summers are often warm and humid with frequent thunderstorms and winters can be very cold with frequent snowfall and persistent snow cover.

Runways

Designator Length Width Surface Rops
12/30 1737 46 ASP Yes/Yes
6/24 2743 46 ASP Yes/Yes
Airport map: 
Aerial View: 

Accidents and Serious Incidents at or in the vicinity of CYQB

SKYbrary Partners:

Safety knowledge contributed by: